Location: Dover
(39.1580°N, 75.5250°W)
Time: 11:34:33
(UTC-04:00)

Daily predictions for brighter satellites

Satellite Brightness Start Highest point End
(mag) Time Altitude Azimuth Time Altitude Azimuth Time Altitude Azimuth
Tsikada Rocket 4.5 19:06:32 10° NNW 19:12:47 69° W 19:18:56 10° S
Cosmos 2346 Rocket 4.5 19:07:24 10° N 19:13:26 64° E 19:19:24 10° SSE
SL-19 R/B 4.3 19:11:58 10° SSE 19:17:31 70° ENE 19:23:23 10° N
Cosmos 2219 Rocket 3.8 19:15:09 10° SW 19:20:22 39° WNW 19:25:39 10° N
Helios 1A 4.1 19:17:18 10° ESE 19:20:41 24° ENE 19:24:03 10° NNE
SeaSat 1 4.2 19:20:14 10° E 19:21:32 11° ESE 19:22:50 10° ESE
CZ-2C R/B 4.2 19:17:52 10° SSW 19:22:29 37° W 19:27:00 10° NNW
NOSS 3-2 (A) 3.5 19:19:57 10° SSW 19:25:52 62° ESE 19:32:17 10° NE
Meteor 1-22 Rocket 4.1 19:20:49 10° S 19:26:07 64° E 19:31:21 10° NNE
Cosmos 2278 Rocket 2.7 19:21:09 10° NNW 19:26:46 66° WSW 19:32:21 10° S
COSMO-SKYMED 1 3.1 19:22:28 10° N 19:26:47 65° WNW 19:31:03 10° SSW
Cosmos 1441 Rocket 3.7 19:23:27 10° NNW 19:27:10 62° W 19:30:51 10° S
Cosmos 1378 3.4 19:25:56 10° N 19:29:33 46° E 19:33:08 10° SSE
ALOS 3.5 19:27:07 10° ESE 19:30:36 21° ENE 19:34:06 10° NNE
OAO 3 Rocket 3.7 19:26:46 10° WSW 19:31:18 45° S 19:35:32 12° E
Cosmos 2297 3.7 19:26:00 10° NNW 19:31:39 66° ENE 19:37:14 10° SSE
USA 238 4.5 19:24:44 10° SW 19:31:40 57° NW 19:38:37 10° NNE
ATLAS CENTAUR R/B 3.4 19:27:14 10° SSW 19:31:40 67° ESE 19:45:21 10° NE
Meteor 1-28 Rocket 3.1 19:28:38 10° NNE 19:32:21 64° E 19:36:01 10° S
CZ-4C R/B 3.4 19:29:33 10° WSW 19:34:38 44° NW 19:40:21 10° NNE
Meteor 1-24 Rocket 3.6 19:31:41 10° N 19:37:23 82° E 19:42:48 10° S
Cosmos 1707 3.8 19:35:53 10° NNW 19:39:37 49° W 19:43:19 10° SSW
Cosmos 2034 Rocket 4.2 19:37:55 10° SSE 19:43:51 48° E 19:49:53 10° NNE
SAR-Lupe-4 4.1 19:41:25 10° S 19:44:57 62° WSW 19:48:30 10° NNW
Cosmos 2369 Rocket 4.0 19:42:17 10° NNE 19:45:07 14° NE 19:47:06 12° ENE
SJ-6B 3.0 19:42:21 10° S 19:46:18 79° W 19:50:21 10° NNW
Cosmos 1464 Rocket 3.9 19:40:08 10° S 19:46:21 69° E 19:52:30 10° NNE
Cosmos 1766 Rocket 3.8 19:43:12 10° N 19:47:25 45° E 19:51:35 10° SSE
Cosmos 1603 4.3 19:42:46 10° SSE 19:47:55 35° ESE 19:53:06 10° NE
FREGAT/IRIS 2.6 19:45:09 10° SSE 19:48:15 89° NE 19:51:20 10° N
Timation 1 Rocket 4.3 19:42:43 10° NNW 19:48:40 66° ENE 19:54:35 10° SSE
Cosmos 1437 4.1 19:48:12 10° NNW 19:51:20 43° W 19:54:27 10° SSW
Cosmos 1758 3.5 19:51:48 10° S 19:55:44 50° E 19:59:43 10° NNE
NOSS 3-3 (A) 4.5 19:51:09 10° NNW 19:58:38 72° NE 20:06:28 10° SE
NOSS 3-3 (C) 4.5 19:51:15 10° NNW 19:58:44 71° NE 20:06:29 11° SE
Cosmos 2333 Rocket 4.5 19:55:01 10° WSW 19:59:47 26° NW 20:04:35 10° N
Spot 2 Rocket 3.4 19:56:19 10° SSE 20:01:21 81° ENE 20:06:25 10° NNW
NOSS 3-2 (C) 3.5 19:57:25 10° SSW 20:03:28 90° WNW 20:10:04 10° NNE
FengYun 1-2 T 4.2 19:58:03 10° SSE 20:03:30 65° ENE 20:08:56 10° N
CENTAUR R/B 3.4 19:59:04 10° SSE 20:03:39 23° ESE 20:05:41 20° E
Cosmos 1076 Rocket 3.5 20:00:01 10° N 20:04:22 89° E 20:08:42 10° S
ASTEX 1 3.8 20:01:29 10° NNE 20:06:03 38° E 20:10:35 10° SSE
GPS 2-04 Rocket1 4.1 20:03:44 10° SSW 20:06:16 18° SSE 20:06:26 18° SSE
Helios 1B rocket 2.4 20:02:25 10° NNE 20:06:33 90° W 20:10:40 10° SSW
Cosmos 2056 Rocket 4.4 20:01:37 10° NNW 20:06:53 52° WSW 20:12:07 10° S
Cosmos-2242 3.0 20:03:46 10° S 20:08:03 63° E 20:12:24 10° NNE
SL-8 R/B 4.2 20:05:35 10° SSW 20:10:00 38° SE 20:11:40 29° E
In-Cosmos 22 4.2 20:09:19 10° N 20:15:08 88° E 20:20:54 10° S
Cosmos 1674 3.6 20:13:57 10° NNE 20:16:58 30° ENE 20:16:58 30° ENE
Cosmos 1842 Rocket 4.0 20:18:06 35° ESE 20:18:44 37° E 20:22:45 10° NNE
Meteor 1-21 Rocket 4.1 20:14:53 10° N 20:20:27 73° E 20:25:58 10° SSE
Atlas Centaur 2 4.1 20:13:38 10° W 20:21:02 33° SSW 20:26:11 17° SSE
Cosmos 1500 Rocket 4.0 20:17:31 10° N 20:21:39 37° ENE 20:21:56 37° E
Cosmos 1408 Rocket 3.9 20:17:51 10° NNW 20:22:11 65° W 20:26:26 10° S
ASTRO E2 4.0 20:19:24 10° WSW 20:22:50 27° S 20:23:32 25° SSE
Cosmos 1346 3.9 20:26:03 10° N 20:28:07 40° N 20:28:07 40° N
ATLAS CENTAUR R/B 4.0 20:26:50 10° WNW 20:29:37 18° WSW 20:32:16 10° SSW
Resurs 01 Rocket 2.7 20:27:24 10° S 20:31:40 46° W 20:35:59 10° NNW
Abrixas 4.2 20:28:49 10° SW 20:30:14 24° SSW 20:30:14 24° SSW
Resurs 1-3 4.1 20:28:55 10° S 20:33:14 58° W 20:37:35 10° NNW
ATLAS 5 CENTAUR R/B 2.4 20:28:45 10° SW 20:33:27 58° NW 20:38:33 10° NNE
USA 215 3.8 20:32:41 10° NE 20:39:03 58° NW 20:45:25 10° WSW
CZ-2D R/B 3.3 20:43:00 55° S 20:43:48 78° W 20:47:42 10° NNW
SL-16 R/B 4.1 20:39:56 10° WSW 20:44:52 30° WNW 20:49:49 10° N
Cosmos 1743 Rocket 3.8 20:45:20 10° NNW 20:49:47 70° W 20:51:26 37° SSW
Gbstr 26 Del rocket 4.4 20:46:15 10° SSW 20:48:32 28° S 20:48:32 28° S
Cosmos 1953 4.1 20:47:00 10° SW 20:50:37 32° WNW 20:54:13 10° NNW
ISS -0.4 20:49:29 10° SSW 20:49:30 10° SSW 20:49:30 10° SSW
ERS-1 Rocket 3.7 20:54:54 37° NE 20:54:54 37° NE 20:58:31 10° N
Nadezhda 4 Rocket 4.3 20:51:29 10° NNW 20:57:43 68° W 21:03:50 10° S
Cosmos 1655 Rocket 4.4 20:51:50 10° N 20:57:04 42° ENE 20:57:04 42° ENE
SeaSat 1 2.4 20:54:35 10° NNE 20:59:33 85° WNW 21:04:29 10° SSW
BREEZE-M DEB (TANK) 3.7 20:50:36 10° WNW 21:01:23 48° N 21:02:28 41° NE
H-2A R/B 3.7 21:01:10 43° SW 21:01:43 46° W 21:05:29 10° NNW
GP-B 3.6 20:58:04 10° N 21:01:21 49° N 21:01:21 49° N
Cosmos 1092 Rocket 3.9 20:57:30 10° N 21:03:44 83° W 21:06:37 34° S
Cosmos 2142 Rocket 4.4 21:02:43 27° S 21:06:22 79° E 21:12:47 10° N
ALOS 3.6 21:04:18 15° SSW 21:07:46 37° W 21:12:07 10° NNW
Cosmos 839 Rocket 4.3 21:00:34 10° NNW 21:08:08 58° NE 21:08:43 56° ENE
OAO 3 Rocket 4.1 21:09:53 10° W 21:13:21 40° SW 21:13:21 40° SW
Cosmos 1634 Rocket 4.0 21:10:39 10° S 21:16:52 81° W 21:23:08 10° N
Cosmos 2026 Rocket 3.9 21:13:18 10° N 21:18:46 67° NE 21:18:46 67° NE
Cosmos 2369 Rocket 2.5 21:24:17 10° NNW 21:28:54 61° NNW 21:28:54 61° NNW
Cosmos 1943 Rocket 3.6 21:32:20 10° N 21:35:15 28° N 21:35:15 28° N
CENTAUR R/B 3.0 21:47:39 10° SW 21:59:44 13° NNE 22:00:23 10° NNE
